FREJA

Satellite information

Favourite Embed

Satellite Type and Status

PAYLOADIN ORBIT

Key statistics

Satellite FREJA at a glance.

Uptime

12077

Days in orbit

Revolutions

≈ 13.3

Per day

Orbit

LEO

Low Earth Orbit

Inclination

63.0

Latest

Satellite identification and parameters

Extended collection of information and parameters for FREJA.

Object identification

Identified? True

Debris? False

Object name: FREJA

International designator: 1992-064A

Object number (NORAD): 22161

Object ID (CCSDS): 22161

Country: SWEDEN (SWED)

Current information (Y/N): Y

RCS size: LARGE

Orbital parameters

Period: 108.052 minutes

Inclination: 62.9923 deg

SMA: 7514.764 km

Apoapsis: 1694.591 km

Periapsis: 578.667 km

RAAN: 115.5537 deg

Eccentricy: 0.07424876

Argument of periapsis: 219.5603 deg

Mean anomaly: 134.893 deg

Mean motion: 13.32691896 rev/day

Mean motion (dot): 0.00000486 rev/day2

B* drag term: 0.00024833862 1/REarth

Two-line elements (TLE)

Creation date: Oct. 30, 2025, 3:32 a.m.

Reference frame: TEME

Reference center: EARTH

Epoch: Oct. 29, 2025, 8:41 p.m. UTC

TLE line 0: 0 FREJA

TLE line 1: 1 22161U 92064A 25302.86213347 .00000486 00000-0 24834-3 0 9991

TLE line 2: 2 22161 62.9923 115.5537 0742488 219.5603 134.8930 13.32691896603264

Live tracking on map

Real-time ground track for satellite FREJA.

In-orbit conjunctions

A list of the most updated potential collisions computed for object FREJA.

Target Orbit TCA Probability of collision Miss distance Type
NOAA 16 DEB SSO 2025-10-13 22:31:58 0.0001811174 345.0 (m) DEBRIS
THORAD DELTA 1 DEB SSO 2025-08-03 05:02:16 0.000223547 610.0 (m) DEBRIS
SCOUT X-1 DEB LEO 2024-07-15 14:14:19 0.0002299932 287.0 (m) DEBRIS

Associated space launch

Chinese reconnaissance satellite. The Freja magnetospheric research satellite was launched on 6 October 1992 as a "piggyback" payload on a Long March 2C (CZ-2C) rocket from the Jiuquan Satellite Launch Center in China.

FREJA was lifted into orbit during the mission ‘Long March 2C | FSW-1 4 & Freja’, on board a Long March 2 space rocket.

The launch took place on Oct. 6, 1992, 6:20 a.m. from Launch Area 2B.

For more information about the launch, click the button.

Launch to space Long March 2C | FSW-1 4 & Freja
Long March 2C | FSW-1 4 & Freja

Agency: N/A

Status: Launch Successful

Launch date: Oct. 6, 1992, 6:20 a.m. UTC

Rocket: Long March 2

Launch pad: Launch Area 2B

Location: Jiuquan Satellite Launch Center, People's Republic of China

...

Latest news about this satellite

There are no fresh news available about this satellite. Check back as we update our databases every day.


Newsletter sign-up

Weekly statistics, charts and insights to help you stay on top of the space industry.